Weather History for KBFF - December, 2011

Change the Weather History Date:

Monday, December 19, 2011

  Actual Average Record
Temperature  
Mean Temperature 24 °F 25 °F  
Max Temperature 37 °F 39 °F 63 °F (1917)
Min Temperature 11 °F 12 °F -21 °F (1907)
Degree Days  
Heating Degree Days 41 40  
Month to date heating degree days 766 733  
Since 1 July heating degree days 2135 2298  
Cooling Degree Days 0 0  
Month to date cooling degree days 0 0  
Year to date cooling degree days 932 724  
Moisture  
Dew Point 18 °F    
Average Humidity 64    
Maximum Humidity 92    
Minimum Humidity 35    
Precipitation  
Precipitation 0.00 in 0.02 in 0.27 in (1916)
Month to date precipitation 0.15 0.32  
Year to date precipitation 18.66 15.60  
Snow  
Snow 0.00 in 0.30 in 3.00 in (1916)
Month to date snowfall 10.7 4.4  
Since 1 July snowfall 16.2 13.3  
Snow Depth 0.00 in    
Sea Level Pressure  
Sea Level Pressure 30.22 in    
Wind  
Wind Speed 9 mph (NNE)    
Max Wind Speed 20 mph    
Max Gust Speed 24 mph    
Visibility 10 miles    
Events      
T = Trace of Precipitation, MM = Missing Value Source: NWS Daily Summary

Daily Weather History Graph

Daily Weather History Graph

Search for Another Location

Airport or City:

Trip Planner

Search our weather history database for the weather conditions in past years. The results will help you decide how hot, cold, wet, or windy it might be!

Date:

Astronomy

Dec. 19, 2011 Rise Set
Actual Time 7:17 AM MST 4:25 PM MST
Civil Twilight 6:45 AM MST 4:57 PM MST
Nautical Twilight 6:10 AM MST 5:32 PM MST
Astronomical Twilight 5:36 AM MST 6:06 PM MST
Moon 1:26 AM MST (12/19) 12:28 PM MST (12/19)
Length of Visible Light 10h 11m
Length of Day
9h 08m
Waning Crescent, 30% of the Moon is Illuminated
Dec 19
Waning Crescent
Dec 24
New
Dec 31
First Quarter
Jan 9
Full
Jan 16
Last Quarter

Hourly Weather History & Observations

Time (MST) Temp. Windchill Dew Point Humidity Pressure Visibility Wind Dir Wind Speed Gust Speed Precip Events Conditions
12:53 AM 35.1 °F 32.2 °F 21.0 °F 57% 29.98 in 10.0 mi Variable 3.5 mph - N/A   Clear
1:53 AM 33.8 °F 27.0 °F 24.8 °F 70% 30.01 in 10.0 mi West 8.1 mph - N/A   Clear
2:53 AM 32.0 °F 22.1 °F 25.0 °F 75% 30.06 in 10.0 mi North 13.8 mph 20.7 mph N/A   Scattered Clouds
3:04 AM 30.2 °F 24.3 °F 26.6 °F 86% 30.07 in 10.0 mi North 5.8 mph - N/A   Mostly Cloudy
3:16 AM 30.2 °F 21.9 °F 24.8 °F 80% 30.08 in 10.0 mi North 9.2 mph - N/A   Mostly Cloudy
3:53 AM 30.9 °F 22.8 °F 26.1 °F 82% 30.12 in 10.0 mi North 9.2 mph - N/A   Overcast
4:03 AM 30.2 °F 21.3 °F 26.6 °F 86% 30.09 in 10.0 mi North 10.4 mph - N/A   Overcast
4:53 AM 30.2 °F 21.9 °F 26.6 °F 86% 30.12 in 10.0 mi North 9.2 mph - N/A   Overcast
5:53 AM 30.0 °F 20.0 °F 26.1 °F 85% 30.22 in 10.0 mi North 12.7 mph - N/A   Overcast
6:53 AM 28.9 °F 19.2 °F 26.1 °F 89% 30.26 in 10.0 mi NNE 11.5 mph - N/A   Overcast
7:51 AM 28.4 °F 18.0 °F 24.8 °F 86% 30.19 in 10.0 mi NNE 12.7 mph - N/A   Overcast
7:53 AM 28.0 °F 17.5 °F 24.1 °F 85% 30.27 in 10.0 mi NNE 12.7 mph 18.4 mph N/A   Overcast
8:32 AM 30.2 °F 23.4 °F 21.2 °F 69% 30.24 in 10.0 mi North 6.9 mph - N/A   Scattered Clouds
8:53 AM 30.0 °F 21.7 °F 21.0 °F 69% 30.34 in 10.0 mi North 9.2 mph - N/A   Mostly Cloudy
9:22 AM 30.2 °F 21.3 °F 19.4 °F 64% 30.26 in 10.0 mi NE 10.4 mph - N/A   Overcast
9:53 AM 30.2 °F 20.8 °F 17.6 °F 60% 30.27 in 10.0 mi NNE 11.5 mph - N/A   Mostly Cloudy
10:53 AM 33.1 °F 23.0 °F 15.1 °F 48% 30.33 in 10.0 mi NNE 15.0 mph - N/A   Partly Cloudy
11:53 AM 35.6 °F 26.2 °F 12.2 °F 38% 30.22 in 10.0 mi NNE 15.0 mph 18.4 mph N/A   Clear
12:53 PM 36.0 °F 28.0 °F 10.0 °F 34% 30.22 in 10.0 mi NE 11.5 mph 18.4 mph N/A   Clear
1:53 PM 35.1 °F 26.9 °F 10.9 °F 37% 30.23 in 10.0 mi NNE 11.5 mph - N/A   Clear
2:53 PM 34.0 °F 27.2 °F 12.0 °F 40% 30.25 in 10.0 mi NE 8.1 mph - N/A   Clear
3:53 PM 30.9 °F 27.5 °F 12.0 °F 46% 30.30 in 10.0 mi NE 3.5 mph - N/A   Clear
4:53 PM 25.0 °F 19.3 °F 10.0 °F 53% 30.32 in 10.0 mi NE 4.6 mph - N/A   Clear
5:53 PM 21.0 °F 12.4 °F 9.0 °F 60% 30.35 in 8.0 mi NNE 6.9 mph - N/A   Clear
6:53 PM 21.0 °F 10.6 °F 10.0 °F 63% 30.35 in 10.0 mi NNE 9.2 mph - N/A   Clear
7:53 PM 19.0 °F 13.9 °F 10.0 °F 68% 30.34 in 10.0 mi North 3.5 mph - N/A   Clear
8:53 PM 19.0 °F 13.9 °F 10.0 °F 68% 30.32 in 10.0 mi WSW 3.5 mph - N/A   Clear
9:53 PM 17.1 °F - 9.0 °F 71% 30.31 in 10.0 mi Calm Calm - N/A   Clear
10:53 PM 14.0 °F - 8.1 °F 77% 30.30 in 10.0 mi Calm Calm - N/A   Clear
11:53 PM 12.9 °F 5.2 °F 8.1 °F 81% 30.27 in 10.0 mi ENE 4.6 mph - N/A   Clear